Wind_Speed
66 67 68 69 70 70 70 71 70 68 69 70 73 75 77 76 74 72 67 62 57 54 53 51 49 46 42 42 46 50 56 65 76 87 98 110 122 129
65 66 68 69 70 70 70 70 70 70 70 70 72 72 73 73 71 69 65 59 55 52 51 49 47 43 40 40 43 48 54 62 71 82 93 105 118 127
65 66 68 69 69 69 69 69 70 71 72 70 70 70 70 69 67 65 61 57 53 52 50 48 46 42 38 40 43 48 52 59 67 79 89 101 115 125
65 66 67 68 68 68 69 68 69 70 72 72 69 68 67 66 64 61 58 55 52 51 50 48 45 41 37 39 42 47 52 57 67 77 88 99 113 124
64 65 66 68 67 68 67 67 68 69 71 71 69 67 65 63 61 58 55 52 51 50 49 47 44 40 37 38 42 48 54 59 67 75 85 97 111 122
62 64 66 67 66 66 66 66 67 68 69 69 68 66 63 62 60 56 53 50 49 49 48 45 42 39 36 37 41 51 57 62 68 75 84 95 109 120
61 64 65 66 65 65 65 64 65 66 67 67 66 64 62 61 58 55 52 49 47 48 47 44 42 38 35 36 40 51 59 65 70 77 85 94 106 118
61 63 64 64 64 64 63 63 64 65 65 65 64 62 61 59 56 53 52 49 46 46 47 43 40 36 33 34 40 51 60 67 71 79 87 94 105 118
59 60 61 61 62 62 61 61 61 62 63 63 62 60 60 58 55 51 50 48 46 45 45 40 38 34 30 31 40 50 62 69 73 80 88 96 105 117
58 59 59 59 60 60 59 59 59 59 59 60 60 58 57 55 52 50 48 45 43 43 43 38 34 31 27 29 38 50 63 72 76 81 88 96 106 116
57 58 58 58 58 58 57 57 57 56 56 57 57 56 55 53 50 48 46 44 41 40 39 36 31 27 23 26 36 50 62 73 78 82 87 95 106 116
56 56 57 56 56 56 56 56 55 54 54 54 53 53 52 50 47 46 44 41 39 36 34 32 28 24 20 24 34 49 61 72 80 83 88 96 106 115
55 55 55 55 55 55 55 54 54 53 52 52 51 51 49 46 43 42 41 39 36 33 31 29 25 21 17 21 32 47 60 70 80 84 89 97 106 116
53 53 53 53 53 53 53 52 52 51 51 50 49 48 45 43 40 39 38 36 34 31 28 26 22 18 15 19 30 46 60 69 77 84 89 96 107 115
52 52 51 51 51 51 51 50 50 49 49 48 46 44 42 39 38 37 35 33 31 29 26 23 19 15 13 16 27 44 58 68 76 82 88 96 106 115
50 50 50 50 50 49 49 49 48 48 47 45 42 40 39 37 36 35 32 30 28 26 23 20 17 13 11 15 26 41 56 67 76 83 88 95 104 114
48 47 48 48 48 47 47 47 47 46 45 43 40 38 37 35 34 33 30 27 25 23 20 18 15 11 9 14 24 38 52 65 74 83 88 95 103 112
46 45 45 46 46 46 45 45 45 44 42 40 38 36 35 33 32 31 28 25 23 21 18 16 13 10 9 13 23 35 48 62 73 82 88 94 101 110
43 43 43 44 44 43 43 42 42 41 40 38 36 35 34 32 30 27 25 23 21 19 16 14 12 9 9 13 22 33 45 59 71 80 87 93 99 108
40 41 41 41 41 41 40 39 39 38 38 36 35 34 32 30 28 25 23 21 19 17 14 12 10 8 9 13 21 31 43 56 67 77 85 91 97 105
38 38 39 39 39 38 37 38 37 37 36 35 34 33 30 28 25 23 21 19 17 14 12 10 8 8 10 14 20 30 40 52 64 74 82 89 96 104
35 36 36 36 36 35 36 36 35 35 34 34 33 31 28 26 23 21 19 17 15 12 10 9 8 9 12 15 21 30 39 50 60 71 80 87 94 102
33 33 33 33 33 34 34 34 33 33 33 32 31 29 26 24 22 19 17 15 13 10 9 8 9 11 15 18 22 30 39 49 59 68 75 82 90 98
Wind_Direction
303 303 303 304 304 305 306 306 307 308 310 311 311 311 311 311 311 310 309 307 304 302 300 297 295 287 272 257 245 235 228 223 218 214 210 208 204 202
303 303 303 304 305 306 306 307 308 309 312 313 312 312 312 312 311 310 309 307 305 303 301 298 296 288 271 255 242 231 225 220 216 212 208 206 203 201
302 302 303 304 305 306 307 307 309 310 313 314 313 313 313 312 311 310 309 307 305 304 302 299 296 287 272 254 239 227 220 217 212 208 206 204 202 200
301 301 303 304 305 306 307 308 309 311 313 314 315 314 314 313 312 311 309 307 306 305 302 300 296 287 272 254 237 224 215 212 207 205 204 202 201 199
300 301 303 304 305 306 307 308 310 311 313 314 316 316 315 314 313 311 310 308 306 305 303 301 296 288 272 254 234 220 211 207 202 201 202 201 200 198
300 302 303 304 306 306 307 308 310 312 313 315 316 316 316 316 314 313 311 308 307 306 305 302 298 288 274 254 233 216 208 203 199 198 200 200 199 197
300 302 303 304 305 306 308 309 310 312 313 315 317 317 318 317 316 314 313 311 309 308 306 304 299 290 274 253 229 213 206 200 198 198 198 198 197 196
300 302 303 304 305 307 308 309 311 312 314 315 317 318 318 318 316 315 314 313 312 308 307 306 299 293 274 250 225 211 203 198 196 196 196 196 196 195
300 301 303 304 305 307 308 310 311 313 314 315 317 318 318 318 317 316 315 314 313 311 309 308 300 293 275 246 222 210 201 196 194 194 194 194 194 194
300 301 303 304 306 307 308 310 311 313 314 316 317 317 318 318 317 317 316 315 314 312 311 309 302 293 275 244 221 208 200 195 193 193 194 194 194 193
300 301 303 304 306 307 309 310 312 313 314 315 316 317 318 319 318 317 317 316 316 315 313 311 305 295 272 242 219 205 199 195 193 192 193 193 193 193
301 302 303 304 306 307 309 311 312 314 315 316 316 317 318 318 317 317 318 318 318 317 315 313 308 297 270 240 218 204 198 194 192 192 192 192 192 192
300 301 303 304 306 307 309 311 313 315 316 316 317 318 318 318 317 317 318 319 319 320 318 315 309 298 270 237 216 203 196 193 192 191 191 192 192 191
300 302 303 304 306 308 310 312 314 315 316 317 318 319 318 318 318 318 318 319 320 321 319 316 311 299 271 236 214 201 195 192 190 190 190 191 191 191
299 301 302 304 306 308 310 312 314 316 317 318 318 318 318 318 318 318 318 319 319 320 320 318 313 300 272 232 211 201 195 192 190 190 190 191 191 191
298 300 302 304 306 308 310 312 315 316 317 318 318 318 318 317 318 318 317 317 318 318 319 318 313 298 269 229 208 200 195 193 191 190 190 190 191 190
298 299 301 304 307 308 311 313 315 317 318 319 318 318 318 316 317 317 316 314 316 316 316 317 312 295 264 224 206 200 195 192 191 190 190 190 190 190
297 299 301 304 306 309 311 314 316 317 318 319 318 317 317 316 316 315 313 312 312 313 311 311 307 287 253 218 204 199 196 193 191 190 189 189 190 190
296 298 301 304 307 310 312 314 316 317 318 318 318 317 317 316 315 313 311 310 309 308 305 302 296 274 244 216 200 198 195 193 191 190 189 189 190 190
296 298 301 305 308 310 313 315 317 317 318 318 318 317 316 315 313 310 308 308 308 304 298 291 279 254 230 210 199 196 194 191 190 189 188 189 190 190
296 299 302 305 308 311 314 316 317 318 318 319 318 317 315 314 311 307 304 305 304 300 292 281 263 236 216 203 196 194 192 189 188 187 188 188 189 190
295 299 303 306 309 312 315 316 318 319 319 320 319 317 315 312 308 303 300 300 299 292 281 268 248 221 204 196 193 192 190 188 186 186 187 188 189 190
297 300 304 307 311 314 316 317 319 320 321 321 320 318 314 310 306 299 296 294 290 280 269 252 234 212 199 194 191 189 189 188 186 185 186 187 188 189
Height
5573 5564 5555 5546 5536 5527 5517 5508 5500 5492 5484 5469 5453 5438 5423 5410 5398 5385 5374 5365 5354 5345 5335 5326 5318 5311 5306 5304 5306 5311 5318 5327 5338 5355 5376 5401 5427 5458
5557 5548 5538 5529 5520 5510 5500 5490 5480 5471 5463 5452 5437 5422 5407 5393 5379 5367 5356 5347 5338 5329 5319 5311 5303 5297 5292 5290 5291 5296 5304 5313 5325 5341 5361 5384 5411 5440
5541 5532 5522 5512 5503 5493 5483 5473 5462 5452 5443 5434 5419 5405 5391 5376 5363 5350 5339 5330 5322 5314 5304 5296 5289 5283 5278 5276 5277 5282 5290 5300 5312 5327 5347 5369 5395 5424
5525 5516 5507 5497 5487 5477 5467 5456 5446 5434 5424 5414 5403 5389 5375 5361 5348 5336 5325 5315 5307 5299 5290 5282 5275 5269 5265 5263 5264 5269 5277 5287 5299 5315 5334 5355 5380 5410
5509 5500 5491 5481 5472 5461 5451 5441 5430 5419 5407 5396 5386 5373 5361 5347 5334 5323 5312 5302 5293 5285 5277 5269 5261 5256 5252 5250 5252 5257 5265 5276 5289 5304 5324 5344 5369 5398
5494 5485 5476 5466 5457 5446 5436 5425 5414 5404 5392 5380 5370 5358 5346 5333 5319 5309 5300 5290 5281 5271 5263 5255 5248 5243 5239 5237 5239 5245 5254 5266 5280 5296 5314 5334 5358 5387
5479 5470 5460 5451 5441 5431 5421 5411 5400 5389 5377 5365 5354 5343 5331 5318 5306 5295 5286 5278 5269 5257 5249 5243 5235 5230 5226 5225 5227 5234 5243 5255 5270 5286 5304 5325 5349 5376
5464 5455 5446 5436 5427 5416 5406 5396 5386 5374 5363 5351 5340 5329 5317 5305 5294 5283 5273 5265 5258 5249 5237 5231 5223 5218 5214 5213 5216 5223 5233 5245 5260 5277 5296 5317 5341 5367
5448 5440 5431 5422 5412 5403 5393 5383 5372 5360 5349 5338 5327 5316 5305 5294 5283 5273 5262 5252 5244 5236 5226 5220 5212 5206 5203 5202 5206 5212 5223 5236 5251 5269 5288 5309 5333 5359
5434 5425 5417 5408 5398 5389 5380 5371 5360 5349 5337 5326 5316 5305 5293 5282 5271 5262 5252 5244 5236 5226 5215 5209 5202 5196 5193 5193 5196 5203 5214 5227 5243 5261 5280 5302 5326 5351
5420 5411 5403 5394 5385 5376 5368 5359 5349 5338 5326 5315 5304 5293 5282 5271 5260 5251 5243 5234 5227 5218 5207 5200 5194 5188 5186 5186 5188 5195 5206 5220 5236 5254 5274 5296 5320 5345
5406 5398 5389 5381 5372 5363 5354 5346 5337 5327 5316 5306 5295 5284 5272 5262 5252 5242 5234 5225 5218 5211 5202 5193 5187 5182 5180 5180 5181 5188 5199 5213 5230 5248 5268 5290 5313 5339
5392 5384 5376 5368 5359 5351 5342 5333 5324 5315 5305 5295 5285 5274 5264 5254 5245 5236 5227 5218 5211 5204 5196 5189 5183 5177 5175 5175 5177 5183 5194 5208 5225 5243 5263 5285 5308 5333
5378 5371 5363 5355 5347 5339 5330 5322 5313 5303 5294 5285 5275 5265 5255 5246 5237 5229 5221 5213 5205 5198 5192 5185 5179 5175 5172 5172 5174 5180 5190 5204 5220 5239 5258 5280 5303 5328
5365 5358 5351 5343 5335 5327 5319 5311 5302 5293 5284 5275 5265 5256 5247 5238 5230 5223 5215 5208 5201 5194 5188 5182 5177 5173 5171 5171 5172 5178 5188 5201 5216 5234 5253 5275 5299 5323
5352 5345 5338 5331 5324 5316 5308 5300 5291 5282 5274 5265 5256 5248 5239 5231 5224 5217 5210 5203 5197 5191 5186 5180 5176 5173 5171 5171 5173 5178 5187 5200 5214 5231 5250 5272 5294 5320
5338 5333 5326 5320 5313 5306 5298 5289 5281 5273 5264 5256 5247 5240 5232 5225 5217 5210 5204 5198 5193 5188 5184 5179 5176 5173 5171 5172 5174 5179 5188 5199 5213 5230 5248 5269 5292 5317
5326 5321 5315 5309 5302 5295 5287 5279 5271 5263 5255 5247 5239 5232 5225 5218 5211 5205 5199 5194 5190 5185 5181 5178 5175 5173 5172 5173 5176 5180 5188 5199 5212 5228 5246 5268 5291 5315
5314 5310 5304 5298 5292 5285 5278 5270 5262 5254 5247 5239 5232 5225 5218 5212 5205 5200 5195 5190 5186 5183 5179 5177 5175 5173 5173 5174 5177 5182 5189 5198 5211 5228 5246 5267 5290 5314
5303 5299 5294 5288 5282 5275 5268 5261 5254 5246 5239 5231 5224 5218 5211 5205 5200 5195 5190 5186 5183 5180 5177 5175 5174 5173 5174 5175 5178 5183 5189 5199 5212 5228 5247 5267 5288 5310
5293 5289 5284 5279 5273 5267 5260 5253 5246 5239 5231 5224 5217 5211 5204 5199 5194 5190 5186 5183 5179 5177 5175 5174 5173 5173 5174 5176 5180 5185 5191 5200 5212 5227 5245 5264 5284 5305
5283 5279 5275 5270 5264 5258 5252 5245 5238 5231 5224 5217 5211 5204 5198 5193 5188 5185 5182 5179 5176 5174 5173 5172 5172 5173 5175 5177 5181 5186 5193 5202 5213 5226 5243 5261 5280 5305
5274 5271 5266 5261 5256 5250 5244 5238 5231 5224 5217 5211 5204 5198 5192 5187 5183 5180 5177 5175 5173 5172 5171 5171 5171 5173 5175 5178 5183 5188 5195 5204 5215 5228 5245 5263 5283 5305